Content
SEND FEEDBACK

Daily
Averages
Monthly
Summary
Greece

ANDRAVIDHA, GREECE


Home > Europe > Greece
Elevation: 50 feet     Latitude: 37 55N     Longitude: 021 17E

WEATHER
 
SELECT A DAY
Number of Records: 94,511;   Date Range: 7/11/96 - 11/27/14
 
SHARE

PRINT THIS DATA

[ ← Previous Day ]
WEATHER ALMANAC - FEBRUARY 8, 2014
[ Next Day → ]
[ °C ]   °F
Weather ElementAverageHighLow
Temperature55.2 °F61 °F (2:00 pm)46.4 °F (12:50 am)
Dewpoint47.7 °F51.8 °F (8:50 pm)44.6 °F (12:50 am)
Humidity75.7 %93 % (12:50 am)48 % (2:00 pm)
Barometer30.08 in30.16 in (2:00 am)30.01 in (10:50 pm)
Wind Speed5.3 mph13.8 mph (12:50 pm)
Weather ElementAverage
Visibility6.2 mi
Wind DirectionESE (115.6 °)

Weather ElementTotal
Precipitation---
Heating Degree Days11.3 (Base 65)
Growing Degree Days3.7 (Base 50)
Averaged from 53 records on February 8, 2014
WEATHER CONDITIONS BREAKOUT
WIND DIRECTION BREAKOUT
WEATHER BY HOUR - FEBRUARY 8, 2014
[ °C ]   °F
Local TimeTemperatureDewpointHumidityBarometerVisibilityWind DirectionWind SpeedGust SpeedPrecipitationEventsConditions
12:50 AM46.4 °F44.6 °F93 %30.15 in6.2 miCalmPartly Cloudy
1:20 AM46.4 °F44.6 °F93 %30.15 in6.2 miCalmPartly Cloudy
1:50 AM48.2 °F44.6 °F87 %30.15 in6.2 miCalmPartly Cloudy
2:00 AM49.0 °F45.0 °F82 %30.16 in6.0 miCalmScattered Clouds
2:20 AM50.0 °F46.4 °F87 %30.12 in6.2 miCalmPartly Cloudy
2:50 AM50.0 °F46.4 °F87 %30.12 in6.2 miCalmScattered Clouds
3:20 AM50.0 °F46.4 °F87 %30.12 in6.2 miCalmScattered Clouds
3:50 AM51.8 °F46.4 °F82 %30.12 in6.2 miCalmScattered Clouds
4:50 AM50.0 °F46.4 °F87 %30.12 in6.2 miCalmScattered Clouds
5:00 AM50.0 °F46.0 °F82 %30.13 in6.0 miCalmPartly Cloudy
5:50 AM50.0 °F46.4 °F87 %30.12 in6.2 miCalmScattered Clouds
6:20 AM50.0 °F46.4 °F87 %30.12 in6.2 miCalmScattered Clouds
6:50 AM51.8 °F46.4 °F82 %30.12 in6.2 miSE (130°)3.5 mphScattered Clouds
7:20 AM50.0 °F46.4 °F87 %30.12 in6.2 miCalmMostly Cloudy
7:50 AM51.8 °F46.4 °F82 %30.12 in6.2 miCalmMostly Cloudy
8:00 AM51.0 °F46.0 °F77 %30.13 in6.0 miCalmPartly Cloudy
8:20 AM51.8 °F46.4 °F82 %30.12 in6.2 miCalmMostly Cloudy
8:50 AM51.8 °F48.2 °F88 %30.12 in6.2 miCalmMostly Cloudy
9:20 AM51.8 °F48.2 °F88 %30.12 in6.2 miCalmMostly Cloudy
9:50 AM57.2 °F48.2 °F72 %30.12 in6.2 miSSE (150°)9.2 mphPartly Cloudy
10:20 AM57.2 °F48.2 °F72 %30.12 in6.2 miSSE (150°)9.2 mphPartly Cloudy
10:50 AM60.8 °F48.2 °F63 %30.12 in6.2 miSSE (160°)6.9 mphPartly Cloudy
11:00 AM60.0 °F48.0 °F54 %30.14 in6.0 miSSE (160°)6.9 mphScattered Clouds
11:20 AM60.8 °F48.2 °F63 %30.12 in6.2 miSSE (160°)6.9 mphPartly Cloudy
11:50 AM60.8 °F46.4 °F59 %30.09 in6.2 miSouth (170°)11.5 mphPartly Cloudy
12:20 PM60.8 °F46.4 °F59 %30.09 in6.2 miSouth (170°)11.5 mphPartly Cloudy
12:50 PM60.8 °F46.4 °F59 %30.09 in6.2 miSouth (170°)13.8 mphPartly Cloudy
1:20 PM60.8 °F46.4 °F59 %30.09 in6.2 miSouth (170°)13.8 mphPartly Cloudy
1:50 PM60.8 °F46.4 °F59 %30.06 in6.2 miSouth (190°)11.5 mphPartly Cloudy
2:00 PM61.0 °F46.0 °F48 %30.09 in6.0 miSouth (190°)11.5 mphScattered Clouds
2:20 PM60.8 °F46.4 °F59 %30.06 in6.2 miSouth (190°)11.5 mphPartly Cloudy
2:50 PM60.8 °F46.4 °F59 %30.06 in6.2 miSouth (180°)11.5 mphPartly Cloudy
3:20 PM60.8 °F46.4 °F59 %30.06 in6.2 miSouth (180°)11.5 mphPartly Cloudy
3:50 PM60.8 °F48.2 °F63 %30.04 in6.2 miSSW (200°)6.9 mphScattered Clouds
4:20 PM60.8 °F48.2 °F63 %30.04 in6.2 miSSW (200°)6.9 mphScattered Clouds
4:50 PM59.0 °F48.2 °F67 %30.04 in6.2 miSouth (170°)6.9 mphScattered Clouds
5:00 PM59.0 °F49.0 °F59 %30.04 in6.0 miSouth (170°)6.9 mphScattered Clouds
5:20 PM59.0 °F48.2 °F67 %30.04 in6.2 miSouth (170°)6.9 mphScattered Clouds
5:50 PM57.2 °F48.2 °F72 %30.04 in6.2 miSouth (170°)4.6 mphScattered Clouds
6:20 PM57.2 °F48.2 °F72 %30.04 in6.2 miSouth (170°)4.6 mphScattered Clouds
6:50 PM57.2 °F50.0 °F77 %30.04 in6.2 miSSE (160°)6.9 mphMostly Cloudy
7:20 PM57.2 °F50.0 °F77 %30.04 in6.2 miSSE (160°)6.9 mphMostly Cloudy
7:50 PM55.4 °F50.0 °F82 %30.04 in6.2 miSouth (170°)6.9 mphRainLight Rain
8:00 PM56.0 °F50.0 °F73 %30.04 in6.0 miSouth (170°)6.9 mphRainLight Rain
8:20 PM55.4 °F50.0 °F82 %30.04 in6.2 miSouth (170°)6.9 mphRainLight Rain
8:50 PM55.4 °F51.8 °F88 %30.04 in6.2 miSSE (150°)6.9 mphRainLight Rain
9:20 PM55.4 °F51.8 °F88 %30.04 in6.2 miSSE (150°)6.9 mphRainLight Rain
9:50 PM55.4 °F50.0 °F82 %30.04 in6.2 miSSE (160°)4.6 mphOvercast
10:20 PM55.4 °F50.0 °F82 %30.04 in6.2 miSSE (160°)4.6 mphOvercast
10:50 PM53.6 °F50.0 °F88 %30.01 in6.2 miSE (140°)6.9 mphRainLight Rain
11:00 PM54.0 °F51.0 °F85 %30.02 in6.0 miSE (140°)6.9 mphRainLight Rain
11:20 PM53.6 °F50.0 °F88 %30.01 in6.2 miSE (140°)6.9 mphRainLight Rain
11:50 PM53.6 °F50.0 °F88 %30.01 in6.2 miSE (140°)9.2 mphRainLight Rain
Hourly data recorded from LGAD, located miles away from Andravidha, Greece







STORIES FROM OUR PARTNERS